Satellite: RAX-2 Catalog number: 37853 Epoch time: 12284.88959903 Element set: 309 Inclination: 101.7043 deg RA of node: 017.7883 deg Eccentricity: 0.0243561 Arg of perigee: 020.7592 deg Mean anomaly: 340.3293 deg Mean motion: 14.81026950 rev/day Decay rate: 4.825e-05 rev/day^2 Epoch rev: 5151 Checksum: 304
Satellite: AUBIESAT Catalog number: 37854 Epoch time: 12284.94652981 Element set: 0310 Inclination: 101.7061 deg RA of node: 018.2825 deg Eccentricity: 0.0243746 Arg of perigee: 019.9923 deg Mean anomaly: 341.0622 deg Mean motion: 14.81492548 rev/day Decay rate: 5.241e-05 rev/day^2 Epoch rev: 05152 Checksum: 290
Satellite: HRBE Catalog number: 37855 Epoch time: 12285.85126164 Element set: 306 Inclination: 101.7085 deg RA of node: 019.5155 deg Eccentricity: 0.0244899 Arg of perigee: 017.4034 deg Mean anomaly: 343.5372 deg Mean motion: 14.81309209 rev/day Decay rate: 4.771e-05 rev/day^2 Epoch rev: 5165 Checksum: 299
Satellite: RS-39 Catalog number: 38051 Epoch time: 12285.86790509 Element set: 786 Inclination: 051.6354 deg RA of node: 323.0631 deg Eccentricity: 0.0013972 Arg of perigee: 093.1452 deg Mean anomaly: 263.4998 deg Mean motion: 15.26317073 rev/day Decay rate: 9.744e-05 rev/day^2 Epoch rev: 3977 Checksum: 335
Satellite: E-STAR Catalog number: 38079 Epoch time: 12285.72383750 Element set: 566 Inclination: 069.4773 deg RA of node: 047.8423 deg Eccentricity: 0.0704377 Arg of perigee: 099.9667 deg Mean anomaly: 268.1603 deg Mean motion: 14.23649968 rev/day Decay rate: 4.9414e-04 rev/day^2 Epoch rev: 3411 Checksum: 352
Satellite: GOLIAT Catalog number: 38085 Epoch time: 12285.73218347 Element set: 533 Inclination: 069.4832 deg RA of node: 048.5308 deg Eccentricity: 0.0709329 Arg of perigee: 100.4081 deg Mean anomaly: 267.7693 deg Mean motion: 14.22440169 rev/day Decay rate: 4.9771e-04 rev/day^2 Epoch rev: 3409 Checksum: 316
Satellite: HORYU-2 Catalog number: 38340 Epoch time: 12285.82757397 Element set: 190 Inclination: 098.1852 deg RA of node: 225.8847 deg Eccentricity: 0.0012393 Arg of perigee: 326.2977 deg Mean anomaly: 033.7458 deg Mean motion: 14.70257183 rev/day Decay rate: 1.646e-05 rev/day^2 Epoch rev: 2161 Checksum: 323
Satellite: RS-40 Catalog number: 38736 Epoch time: 12285.56721265 Element set: 77 Inclination: 082.4771 deg RA of node: 310.1484 deg Eccentricity: 0.0019485 Arg of perigee: 147.0477 deg Mean anomaly: 213.1821 deg Mean motion: 12.42646795 rev/day Decay rate: 1.0e-07 rev/day^2 Epoch rev: 936 Checksum: 298
Satellite: PROITERES Catalog number: 38756 Epoch time: 12285.87837604 Element set: 119 Inclination: 098.2815 deg RA of node: 352.0513 deg Eccentricity: 0.0013262 Arg of perigee: 171.6518 deg Mean anomaly: 188.4915 deg Mean motion: 14.73908261 rev/day Decay rate: 8.12e-06 rev/day^2 Epoch rev: 481 Checksum: 306
Satellite: AENEAS Catalog number: 38760 Epoch time: 12285.63418111 Element set: 0039 Inclination: 064.6742 deg RA of node: 315.7090 deg Eccentricity: 0.0218665 Arg of perigee: 281.5750 deg Mean anomaly: 225.8995 deg Mean motion: 14.79105703 rev/day Decay rate: 4.663e-05 rev/day^2 Epoch rev: 00408 Checksum: 305
Satellite: OBJECT D Catalog number: 38761 Epoch time: 12285.63398458 Element set: 0034 Inclination: 064.6739 deg RA of node: 315.6908 deg Eccentricity: 0.0219640 Arg of perigee: 281.6033 deg Mean anomaly: 237.4379 deg Mean motion: 14.79182964 rev/day Decay rate: 3.082e-05 rev/day^2 Epoch rev: 00408 Checksum: 327
Satellite: OBJECT E Catalog number: 38762 Epoch time: 12285.63371359 Element set: 0034 Inclination: 064.6748 deg RA of node: 315.6866 deg Eccentricity: 0.0219416 Arg of perigee: 281.3263 deg Mean anomaly: 240.4842 deg Mean motion: 14.79239544 rev/day Decay rate: 3.677e-05 rev/day^2 Epoch rev: 00408 Checksum: 321
Satellite: OBJECT F Catalog number: 38763 Epoch time: 12285.63372642 Element set: 0032 Inclination: 064.6740 deg RA of node: 315.6834 deg Eccentricity: 0.0219648 Arg of perigee: 281.5472 deg Mean anomaly: 242.2846 deg Mean motion: 14.79241291 rev/day Decay rate: 3.045e-05 rev/day^2 Epoch rev: 00392 Checksum: 301
Satellite: OBJECT G Catalog number: 38764 Epoch time: 12285.63331274 Element set: 0032 Inclination: 064.6733 deg RA of node: 315.6795 deg Eccentricity: 0.0219569 Arg of perigee: 281.6381 deg Mean anomaly: 240.8814 deg Mean motion: 14.79251868 rev/day Decay rate: 2.834e-05 rev/day^2 Epoch rev: 00408 Checksum: 321
Satellite: OBJECT H Catalog number: 38765 Epoch time: 12285.63079299 Element set: 0037 Inclination: 064.6737 deg RA of node: 315.6833 deg Eccentricity: 0.0219324 Arg of perigee: 281.5901 deg Mean anomaly: 230.2625 deg Mean motion: 14.79307956 rev/day Decay rate: 3.771e-05 rev/day^2 Epoch rev: 00408 Checksum: 320
Satellite: OBJECT J Catalog number: 38766 Epoch time: 12285.62829259 Element set: 0030 Inclination: 064.6721 deg RA of node: 315.6698 deg Eccentricity: 0.0219494 Arg of perigee: 281.5491 deg Mean anomaly: 228.0895 deg Mean motion: 14.79395065 rev/day Decay rate: 3.206e-05 rev/day^2 Epoch rev: 00408 Checksum: 331
Satellite: 1998067CN Catalog number: 38852 Epoch time: 12284.94161481 Element set: 0008 Inclination: 051.6480 deg RA of node: 266.2171 deg Eccentricity: 0.0019250 Arg of perigee: 144.9617 deg Mean anomaly: 215.2645 deg Mean motion: 15.51537498 rev/day Decay rate: 3.4078e-04 rev/day^2 Epoch rev: 00091 Checksum: 335
Satellite: 1998067CP Catalog number: 38853 Epoch time: 12284.94147275 Element set: 0007 Inclination: 051.6475 deg RA of node: 266.2191 deg Eccentricity: 0.0014925 Arg of perigee: 157.2300 deg Mean anomaly: 202.9281 deg Mean motion: 15.51613332 rev/day Decay rate: 4.0671e-04 rev/day^2 Epoch rev: 00097 Checksum: 319
Satellite: 1998067CQ Catalog number: 38854 Epoch time: 12284.87666330 Element set: 0006 Inclination: 051.6479 deg RA of node: 266.5332 deg Eccentricity: 0.0014399 Arg of perigee: 152.6575 deg Mean anomaly: 207.5187 deg Mean motion: 15.51770880 rev/day Decay rate: 5.2033e-04 rev/day^2 Epoch rev: 00096 Checksum: 353
Satellite: 1998067CR Catalog number: 38855 Epoch time: 12284.94118099 Element set: 0008 Inclination: 051.6493 deg RA of node: 266.2168 deg Eccentricity: 0.0014236 Arg of perigee: 155.7883 deg Mean anomaly: 204.3806 deg Mean motion: 15.51737119 rev/day Decay rate: 4.9463e-04 rev/day^2 Epoch rev: 00086 Checksum: 357
/EX